Location: Chandler
(33.3060°N, 111.8410°W)
Time: 23:50:45
(UTC-07:00)

Amateur Radio Satellites - All Passes

Search period start: 27 November 2014 23:20
Search period end: 28 November 2014 23:20
Location: Chandler, 33.3060°N, 111.8410°W

Satellite Date Start Highest point End Downlink Frequencies (MHz)
Time Altitude Azimuth
AISAT 27 Nov 23:23:12 23:26:08 17° 265° (W) 23:29:04 437.250
50 SAT 27 Nov 23:24:51 23:27:36 18° 265° (W) 23:30:22 437.505
CUBEBUG 1 27 Nov 23:26:35 23:30:51 45° 260° (W) 23:35:07 437.445
TIGRISAT 27 Nov 23:41:36 23:45:45 39° 287° (WNW) 23:49:59 435.000
POPSAT HIP 1 27 Nov 23:43:51 23:47:57 51° 285° (WNW) 23:52:02 437.405
CUSAT 1 27 Nov 23:51:13 23:56:26 65° 82° (E) 00:03:21 437.405
UNISAT 6 27 Nov 23:56:50 00:00:34 26° 289° (WNW) 00:04:22 437.425
JUGNU 28 Nov 00:07:56 00:12:17 21° 177° (S) 00:16:40 437.505
AUBIESAT-1 28 Nov 00:13:02 00:16:29 27° 65° (ENE) 00:20:12 437.475
M-CUBED/EXP-1 PRIME 28 Nov 00:19:31 00:23:13 35° 67° (ENE) 00:27:14 437.505
POLYITAN 1 28 Nov 00:19:38 00:22:41 20° 290° (WNW) 00:25:44 437.675
QB50P2 28 Nov 00:20:50 00:23:49 19° 291° (WNW) 00:26:49 145.880/145.840
MaSat-1 28 Nov 00:21:33 00:23:36 26° 65° (ENE) 00:25:44 437.345
SRMSAT 28 Nov 00:22:59 00:26:58 18° 170° (S) 00:30:57 437.500
TISAT 1 28 Nov 00:25:32 00:29:31 38° 261° (W) 00:33:30 437.305
DUCHIFAT 1 28 Nov 00:25:38 00:28:23 17° 291° (WNW) 00:31:07 145.980
DANDE 28 Nov 00:26:35 00:31:40 72° 263° (W) 00:38:32 436.750
ANTELSAT 28 Nov 00:27:23 00:29:23 13° 293° (WNW) 00:31:24 437.575/2403.000
ITUPSAT 1 28 Nov 00:35:33 00:39:47 32° 71° (ENE) 00:44:03 437.325
SPROUT 28 Nov 00:42:29 00:46:13 28° 263° (W) 00:49:58 437.525
SWISSCUBE 28 Nov 00:45:15 00:49:49 45° 73° (ENE) 00:54:23 437.505
RS-15 28 Nov 00:49:53 01:00:55 56° 56° (NE) 01:12:24 29.354- 29.394
KKS-1 28 Nov 01:09:33 01:11:39 13° 67° (ENE) 01:13:46 437.445
BEESAT 28 Nov 01:15:34 01:20:22 90° 257° (WSW) 01:25:11 436.000
YUBILEINY 28 Nov 01:17:56 01:24:18 23° 83° (E) 01:30:37 435.215
CUSAT 1 28 Nov 01:36:28 01:39:29 15° 268° (W) 01:42:52 437.405
AUBIESAT-1 28 Nov 01:48:27 01:51:28 20° 262° (W) 01:54:41 437.475
M-CUBED/EXP-1 PRIME 28 Nov 01:56:03 01:58:26 15° 264° (W) 02:00:56 437.505
Oscar 19 28 Nov 01:56:33 02:01:44 77° 103° (ESE) 02:06:55 437.125/150
JUGNU 28 Nov 01:56:34 02:00:41 19° 187° (S) 02:04:49 437.505
STARS 28 Nov 01:58:36 02:02:30 32° 72° (ENE) 02:06:25 437.465
Gurwin Techsat 1B 28 Nov 02:01:57 02:05:14 16° 94° (E) 02:08:29 435.225
SRMSAT 28 Nov 02:11:01 02:15:31 22° 181° (S) 02:20:02 437.500
ITUPSAT 1 28 Nov 02:14:01 02:17:40 22° 264° (W) 02:21:20 437.325
SWISSCUBE 28 Nov 02:25:08 02:27:50 15° 266° (W) 02:30:33 437.505
KKS-1 28 Nov 02:43:35 02:47:51 46° 260° (W) 02:52:09 437.445
ITAMSAT 1 28 Nov 02:54:40 02:59:51 78° 285° (WNW) 03:05:00 435.822/435.867
RS-15 28 Nov 03:02:49 03:12:50 38° 253° (WSW) 03:23:17 29.354- 29.394
SO-50 28 Nov 03:04:56 03:09:23 75° 117° (ESE) 03:13:59 436.795
YUBILEINY 28 Nov 03:11:35 03:20:17 64° 279° (W) 03:29:00 435.215
STARS 28 Nov 03:36:02 03:39:00 18° 265° (W) 03:41:59 437.465
Oscar 19 28 Nov 03:39:15 03:40:22 11° 297° (WNW) 03:41:28 437.125/150
Gurwin Techsat 1B 28 Nov 03:40:18 03:45:23 49° 287° (WNW) 03:50:28 435.225
JUGNU 28 Nov 03:47:19 03:49:02 11° 197° (SSW) 03:50:45 437.505
HORYU 2 28 Nov 03:57:09 04:01:37 67° 285° (WNW) 04:06:05 437.375
SRMSAT 28 Nov 04:00:16 04:04:05 17° 191° (S) 04:07:53 437.500
MOZHAYETS 4 28 Nov 04:04:51 04:08:47 29° 71° (ENE) 04:12:44
AO-7 28 Nov 04:11:25 04:19:24 47° 101° (ESE) 04:27:19 29.400- 29.500
BEESAT 3 28 Nov 04:13:06 04:16:10 19° 53° (NE) 04:19:11 437.485
JAS-2 28 Nov 04:25:31 04:29:26 16° 89° (E) 04:33:06 435.910
BEESAT 2 28 Nov 04:30:08 04:33:41 26° 55° (NE) 04:37:12 435.950
PCSat 28 Nov 04:34:34 04:39:46 45° 60° (ENE) 04:44:55 145.827
SO-50 28 Nov 04:48:53 04:50:29 12° 314° (NW) 04:52:06 436.795
AIST 2 28 Nov 05:14:51 05:18:52 38° 57° (ENE) 05:22:50 435.215
ISS 28 Nov 05:30:45 05:33:45 32° 38° (NE) 05:36:45 145.825
MOZHAYETS 4 28 Nov 05:42:27 05:45:57 22° 265° (W) 05:49:30
STRAND 1 28 Nov 05:43:11 05:47:16 25° 68° (ENE) 05:51:22 437.568
O/OREOS (USA 219) 28 Nov 05:48:50 05:53:18 68° 290° (WNW) 05:57:46 437.305
BEESAT 3 28 Nov 05:50:43 05:54:25 31° 248° (WSW) 05:58:05 437.485
CUBESAT XI-V 28 Nov 05:52:53 05:56:56 29° 71° (ENE) 06:01:00 437.345
Cubesat XI-IV 28 Nov 05:52:56 05:57:06 23° 96° (E) 06:01:15 437.490
PRISM 28 Nov 06:01:09 06:05:20 73° 258° (WSW) 06:09:34 437.425
AO-7 28 Nov 06:04:35 06:11:51 35° 297° (WNW) 06:19:08 29.400- 29.500
JAS-2 28 Nov 06:08:25 06:15:08 63° 287° (WNW) 06:21:02 435.910
BEESAT 2 28 Nov 06:08:33 06:11:49 22° 250° (WSW) 06:15:03 435.950
PCSat 28 Nov 06:19:00 06:22:46 19° 255° (WSW) 06:26:31 145.827
CUTE-I 28 Nov 06:32:46 06:38:01 59° 101° (E) 06:43:13 437.470
AIST 1 28 Nov 06:33:16 06:37:21 39° 80° (E) 06:41:23
AIST 2 28 Nov 06:54:37 06:57:08 15° 252° (WSW) 06:59:38 435.215
GONETS M04 28 Nov 07:07:54 07:14:44 26° 83° (E) 07:21:34
ISS 28 Nov 07:07:55 07:10:12 17° 232° (SW) 07:12:28 145.825
STRAND 1 28 Nov 07:21:41 07:26:15 32° 262° (W) 07:30:50 437.568
CUBESAT XI-V 28 Nov 07:30:39 07:34:19 22° 265° (W) 07:38:00 437.345
Cubesat XI-IV 28 Nov 07:32:24 07:37:12 35° 290° (WNW) 07:41:58 437.490
HO-68 28 Nov 07:49:33 07:51:43 11° 91° (E) 07:53:53 435.675
AIST 1 28 Nov 08:12:40 08:14:34 13° 274° (W) 08:16:28
CUTE-I 28 Nov 08:14:41 08:17:32 15° 296° (WNW) 08:20:22 437.470
CANX-2 28 Nov 08:20:24 08:22:48 15° 94° (E) 08:25:11 2200.000
CUTE 1.7 + AOD 2 28 Nov 08:53:24 08:57:18 33° 98° (E) 09:01:12 437.475
BRITE-PL 28 Nov 09:01:18 09:05:13 39° 99° (E) 09:09:16 437.365/2234.400
GONETS M04 28 Nov 09:02:18 09:10:52 57° 280° (W) 09:19:33
DOVE 4 28 Nov 09:04:22 09:07:41 22° 97° (E) 09:11:06 437.250
UNISAT 6 28 Nov 09:17:44 09:19:26 12° 67° (ENE) 09:21:08 437.425
CINEMA 3 28 Nov 09:21:25 09:24:39 21° 96° (E) 09:27:58 145.822/145.860
SEEDS 28 Nov 09:22:50 09:27:07 68° 101° (E) 09:31:22 437.485
DELFI C3 28 Nov 09:27:27 09:30:35 21° 96° (E) 09:33:41 145.870
UKube-1 28 Nov 09:30:12 09:33:36 22° 96° (E) 09:36:59 .
HO-68 28 Nov 09:32:57 09:40:10 88° 105° (ESE) 09:47:19 435.675
AAUSAT CUBESAT 2 28 Nov 09:34:26 09:38:40 69° 101° (E) 09:42:53 437.432
POLYITAN 1 28 Nov 09:34:34 09:36:35 13° 67° (ENE) 09:38:35 437.675
QB50P2 28 Nov 09:35:25 09:37:31 14° 67° (ENE) 09:39:37 145.880/145.840
FUNcube-1 28 Nov 09:38:18 09:40:28 14° 94° (E) 09:42:38 145.935
Oscar 11 28 Nov 09:39:01 09:43:01 35° 98° (E) 09:47:00 145.826/435.025
DUCHIFAT 1 28 Nov 09:39:24 09:41:47 15° 68° (ENE) 09:44:10 145.980
ANTELSAT 28 Nov 09:44:46 09:48:18 26° 71° (ENE) 09:51:50 437.575/2403.000
COMPASS 1 28 Nov 09:51:36 09:55:49 62° 284° (WNW) 10:00:01 437.405
CANX-2 28 Nov 09:54:52 09:58:49 37° 287° (WNW) 10:02:47 2200.000
GOMX 1 28 Nov 09:57:35 10:01:43 57° 284° (WNW) 10:06:00 467.674
NANOSAT C BR1 28 Nov 09:58:02 10:01:31 25° 71° (ENE) 10:04:59 145.865
HUMSAT D 28 Nov 10:03:25 10:05:57 16° 94° (E) 10:08:30 437.325/437.525
BUGSAT 1 28 Nov 10:05:08 10:08:37 25° 71° (ENE) 10:12:04 437.445
DX 1 28 Nov 10:07:39 10:11:59 68° 102° (ESE) 10:16:17 434.975-435.025
QB50P1 28 Nov 10:07:56 10:11:44 33° 72° (ENE) 10:15:33 145.935-145.965
UWE-3 28 Nov 10:09:22 10:13:25 40° 99° (E) 10:17:33 435.000/436.395/437.385
CUBEBUG 2 28 Nov 10:14:29 10:18:42 55° 100° (E) 10:23:02 437.445
CUTE 1.7 + AOD 2 28 Nov 10:30:13 10:32:56 17° 291° (WNW) 10:35:39 437.475
POPSAT HIP 1 28 Nov 10:32:38 10:36:51 68° 76° (ENE) 10:41:05 437.405
TIGRISAT 28 Nov 10:36:21 10:40:36 73° 258° (WSW) 10:44:51 435.000
ZACube-1 28 Nov 10:38:22 10:42:40 78° 102° (ESE) 10:47:02 437.345
BRITE-PL 28 Nov 10:41:33 10:43:26 13° 292° (WNW) 10:45:20 437.365/2234.400
DOVE 4 28 Nov 10:41:58 10:45:22 24° 288° (WNW) 10:48:53 437.250
VELOX 1 28 Nov 10:49:03 10:53:25 58° 101° (E) 10:57:44 145.980
UNISAT 6 28 Nov 10:51:43 10:55:48 45° 260° (W) 10:59:54 437.425
ESTCUBE 1 28 Nov 10:57:38 11:01:24 25° 96° (E) 11:05:07 437.505/2401.250
CINEMA 3 28 Nov 10:58:13 11:01:48 27° 288° (WNW) 11:05:29 145.822/145.860
DELFI C3 28 Nov 11:02:25 11:05:47 24° 289° (WNW) 11:09:08 145.870
UKube-1 28 Nov 11:06:09 11:09:40 25° 290° (WNW) 11:13:10 .
POLYITAN 1 28 Nov 11:08:06 11:12:08 42° 261° (W) 11:16:10 437.675
50 SAT 28 Nov 11:08:25 11:12:31 86° 101° (E) 11:16:37 437.505
QB50P2 28 Nov 11:09:02 11:13:03 41° 261° (W) 11:17:05 145.880/145.840
FUNcube-1 28 Nov 11:12:56 11:16:55 40° 286° (WNW) 11:20:59 145.935
DUCHIFAT 1 28 Nov 11:13:22 11:17:19 37° 261° (W) 11:21:15 145.980
Oscar 11 28 Nov 11:16:09 11:18:52 16° 292° (WNW) 11:21:34 145.826/435.025
AISAT 28 Nov 11:17:00 11:21:22 62° 285° (WNW) 11:25:42 437.250
CUBEBUG 1 28 Nov 11:20:01 11:24:10 44° 99° (E) 11:28:17 437.445
ANTELSAT 28 Nov 11:21:53 11:25:03 20° 264° (W) 11:28:13 437.575/2403.000
HO-68 28 Nov 11:23:10 11:26:53 15° 302° (WNW) 11:30:36 435.675
NANOSAT C BR1 28 Nov 11:34:03 11:37:18 21° 264° (W) 11:40:34 145.865
HUMSAT D 28 Nov 11:38:03 11:41:48 33° 287° (WNW) 11:45:36 437.325/437.525
BUGSAT 1 28 Nov 11:40:44 11:44:01 21° 264° (W) 11:47:17 437.445
SO-50 28 Nov 11:40:52 11:44:50 24° 53° (NE) 11:48:48 436.795
QB50P1 28 Nov 11:45:02 11:47:40 16° 265° (W) 11:50:19 145.935-145.965
UWE-3 28 Nov 11:47:19 11:49:37 14° 292° (WNW) 11:51:57 435.000/436.395/437.385
CUBEBUG 2 28 Nov 11:54:02 11:54:57 11° 293° (WNW) 11:55:52 437.445
TISAT 1 28 Nov 12:14:45 12:18:46 44° 99° (E) 12:22:46 437.305
VELOX 1 28 Nov 12:28:36 12:29:27 11° 295° (WNW) 12:30:18 145.980
VERMONT LUNAR 28 Nov 12:29:17 12:32:33 33° 146° (SSE) 12:35:50 437.305
PHONESAT 2.4 28 Nov 12:29:44 12:32:42 23° 144° (SE) 12:35:40 2401.200-2431.200
SPROUT 28 Nov 12:32:57 12:37:12 67° 101° (E) 12:41:26 437.525
ITAMSAT 1 28 Nov 12:33:44 12:34:50 11° 63° (ENE) 12:35:57 435.822/435.867
ESTCUBE 1 28 Nov 12:34:31 12:38:08 24° 290° (WNW) 12:41:43 437.505/2401.250
ITUPSAT 1 28 Nov 12:42:53 12:44:17 11° 92° (E) 12:45:41 437.325
SWISSCUBE 28 Nov 12:51:17 12:54:17 16° 94° (E) 12:57:16 437.505
CUBEBUG 1 28 Nov 12:58:05 13:00:07 13° 293° (WNW) 13:02:09 437.445
CUSAT 1 28 Nov 13:02:19 13:05:00 57° 278° (W) 13:07:34 437.405
Oscar 19 28 Nov 13:09:15 13:14:20 73° 75° (ENE) 13:19:26 437.125/150
Gurwin Techsat 1B 28 Nov 13:19:14 13:22:46 18° 66° (ENE) 13:26:19 435.225
BEESAT 28 Nov 13:20:39 13:24:57 32° 98° (E) 13:29:12 436.000
SO-50 28 Nov 13:20:59 13:25:26 35° 248° (WSW) 13:29:51 436.795
YUBILEINY 28 Nov 13:27:03 13:35:31 54° 80° (E) 13:43:55 435.215
AUBIESAT-1 28 Nov 13:33:55 13:38:38 48° 103° (ESE) 13:43:08 437.475
M-CUBED/EXP-1 PRIME 28 Nov 13:41:01 13:45:55 65° 105° (ESE) 13:50:34 437.505
DANDE 28 Nov 13:41:29 13:43:20 16° 282° (WNW) 13:45:05 436.750
MaSat-1 28 Nov 13:45:56 13:47:49 15° 108° (ESE) 13:49:36 437.345
TISAT 1 28 Nov 13:52:28 13:54:11 12° 293° (WNW) 13:55:53 437.305
VERMONT LUNAR 28 Nov 14:07:27 14:10:57 47° 341° (NNW) 14:14:27 437.305
PHONESAT 2.4 28 Nov 14:07:36 14:11:16 64° 337° (NNW) 14:14:58 2401.200-2431.200
ITAMSAT 1 28 Nov 14:08:23 14:13:36 79° 257° (WSW) 14:18:50 435.822/435.867
ITUPSAT 1 28 Nov 14:17:46 14:22:29 58° 286° (WNW) 14:27:10 437.325
SWISSCUBE 28 Nov 14:27:47 14:32:16 40° 288° (WNW) 14:36:42 437.505
KKS-1 28 Nov 14:39:01 14:43:17 45° 100° (E) 14:47:32 437.445
HORYU 2 28 Nov 14:51:34 14:55:56 66° 75° (ENE) 15:00:20 437.375
Gurwin Techsat 1B 28 Nov 14:57:14 15:02:19 47° 260° (W) 15:07:26 435.225
BEESAT 28 Nov 14:58:58 15:02:33 21° 292° (WNW) 15:06:06 436.000
AO-7 28 Nov 15:05:54 15:13:34 44° 65° (ENE) 15:21:17 29.400- 29.500
RS-15 28 Nov 15:08:12 15:18:44 53° 110° (ESE) 15:29:07 29.354- 29.394
AUBIESAT-1 28 Nov 15:10:05 15:13:08 17° 298° (WNW) 15:16:07 437.475
M-CUBED/EXP-1 PRIME 28 Nov 15:18:05 15:20:18 13° 300° (WNW) 15:22:30 437.505
MaSat-1 28 Nov 15:20:30 15:22:07 14° 297° (WNW) 15:23:41 437.345
YUBILEINY 28 Nov 15:24:52 15:31:43 27° 276° (W) 15:38:33 435.215
STARS 28 Nov 15:28:43 15:33:05 69° 284° (WNW) 15:37:27 437.465
VERMONT LUNAR 28 Nov 15:46:51 15:49:54 25° 358° (N) 15:52:58 437.305
PHONESAT 2.4 28 Nov 15:47:14 15:50:27 27° 354° (N) 15:53:41 2401.200-2431.200
O/OREOS (USA 219) 28 Nov 16:02:55 16:07:22 73° 253° (WSW) 16:11:50 437.305
JAS-2 28 Nov 16:13:31 16:20:32 42° 69° (ENE) 16:27:45 435.910
KKS-1 28 Nov 16:17:21 16:19:30 14° 293° (WNW) 16:21:39 437.445
AO-7 28 Nov 16:58:58 17:06:20 36° 261° (W) 17:13:46 29.400- 29.500
Cubesat XI-IV 28 Nov 17:10:59 17:15:24 27° 69° (ENE) 17:19:48 437.490
RS-15 28 Nov 17:21:12 17:31:13 40° 310° (NW) 17:41:19 29.354- 29.394
VERMONT LUNAR 28 Nov 17:25:34 17:28:56 35° 15° (NNE) 17:32:18 437.305
PHONESAT 2.4 28 Nov 17:26:30 17:29:51 31° 11° (N) 17:33:12 2401.200-2431.200
MOZHAYETS 4 28 Nov 17:40:43 17:45:20 66° 284° (WNW) 17:49:55
PRISM 28 Nov 17:49:24 17:52:42 22° 96° (E) 17:55:58 437.425
CUTE-I 28 Nov 17:50:28 17:55:46 65° 74° (ENE) 18:01:04 437.470
JAS-2 28 Nov 17:58:33 18:05:25 37° 264° (W) 18:12:33 435.910
STRAND 1 28 Nov 18:00:24 18:01:24 11° 92° (E) 18:02:23 437.568
BEESAT 2 28 Nov 18:23:31 18:25:31 13° 108° (ESE) 18:27:32 435.950
Cubesat XI-IV 28 Nov 18:50:34 18:55:18 32° 262° (W) 19:00:04 437.490
AIST 1 28 Nov 18:58:45 19:02:32 29° 90° (E) 19:06:21
VERMONT LUNAR 28 Nov 19:03:58 19:07:31 57° 210° (SSW) 19:11:04 437.305
PHONESAT 2.4 28 Nov 19:05:10 19:08:54 83° 207° (SSW) 19:12:36 2401.200-2431.200
AIST 2 28 Nov 19:10:07 19:13:23 22° 110° (ESE) 19:16:42 435.215
PCSat 28 Nov 19:11:43 19:17:07 83° 295° (WNW) 19:22:33 145.827
GONETS M04 28 Nov 19:17:39 19:26:22 61° 81° (E) 19:34:58
PRISM 28 Nov 19:24:45 19:28:08 24° 290° (WNW) 19:31:30 437.425
CUBESAT XI-V 28 Nov 19:30:41 19:35:17 63° 285° (WNW) 19:39:50 437.345
CUTE-I 28 Nov 19:34:02 19:36:11 12° 268° (W) 19:38:20 437.470
STRAND 1 28 Nov 19:35:54 19:40:58 68° 285° (WNW) 19:46:00 437.568
BEESAT 3 28 Nov 19:41:18 19:45:19 59° 300° (WNW) 19:49:25 437.485
CUTE 1.7 + AOD 2 28 Nov 19:44:02 19:46:26 15° 68° (ENE) 19:48:50 437.475
RS-15 28 Nov 19:44:30 19:48:00 12° 341° (NNW) 19:51:32 29.354- 29.394
HO-68 28 Nov 19:56:53 20:03:34 43° 68° (ENE) 20:10:16 435.675
BEESAT 2 28 Nov 19:59:31 20:03:23 41° 302° (WNW) 20:07:20 435.950
DOVE 4 28 Nov 20:07:29 20:10:07 15° 69° (ENE) 20:12:41 437.250
BRITE-PL 28 Nov 20:08:10 20:12:36 33° 73° (ENE) 20:16:44 437.365/2234.400
SEEDS 28 Nov 20:11:47 20:15:20 27° 72° (ENE) 20:18:54 437.485
CINEMA 3 28 Nov 20:21:31 20:23:11 12° 68° (ENE) 20:24:50 145.822/145.860
AAUSAT CUBESAT 2 28 Nov 20:22:22 20:25:51 27° 72° (ENE) 20:29:21 437.432
UKube-1 28 Nov 20:23:14 20:25:01 12° 66° (ENE) 20:26:49 .
Oscar 11 28 Nov 20:31:02 20:33:50 17° 69° (ENE) 20:36:37 145.826/435.025
AIST 1 28 Nov 20:37:10 20:40:11 18° 284° (WNW) 20:43:14
COMPASS 1 28 Nov 20:39:15 20:43:16 50° 75° (ENE) 20:47:19 437.405
CANX-2 28 Nov 20:43:31 20:47:43 89° 260° (W) 20:51:58 2200.000
PHONESAT 2.4 28 Nov 20:45:21 20:47:17 14° 220° (SW) 20:49:12 2401.200-2431.200
AIST 2 28 Nov 20:48:15 20:51:51 27° 305° (NW) 20:55:30 435.215
DX 1 28 Nov 20:59:32 21:03:29 34° 72° (ENE) 21:07:27 434.975-435.025
PCSat 28 Nov 21:00:06 21:01:19 11° 313° (NW) 21:02:33 145.827
GOMX 1 28 Nov 21:01:28 21:06:17 88° 257° (WSW) 21:10:47 467.674
UWE-3 28 Nov 21:03:57 21:06:59 20° 70° (ENE) 21:10:00 435.000/436.395/437.385
CUBEBUG 2 28 Nov 21:09:43 21:13:18 27° 72° (ENE) 21:16:50 437.445
GONETS M04 28 Nov 21:15:54 21:22:24 24° 277° (W) 21:28:53
CUTE 1.7 + AOD 2 28 Nov 21:18:10 21:22:01 35° 262° (W) 21:25:55 437.475
ZACube-1 28 Nov 21:31:03 21:34:52 35° 73° (ENE) 21:38:39 437.345
VELOX 1 28 Nov 21:43:15 21:47:12 32° 72° (ENE) 21:51:09 145.980
DOVE 4 28 Nov 21:43:18 21:47:36 38° 261° (W) 21:51:43 437.250
HO-68 28 Nov 21:45:10 21:51:17 30° 263° (W) 21:57:28 435.675
DELFI C3 28 Nov 21:46:22 21:50:24 66° 259° (W) 21:54:28 145.870
BRITE-PL 28 Nov 21:47:23 21:51:04 21° 264° (W) 21:54:35 437.365/2234.400
SEEDS 28 Nov 21:48:12 21:51:08 19° 265° (W) 21:54:05 437.485
50 SAT 28 Nov 21:53:44 21:57:15 30° 73° (ENE) 22:00:46 437.505
ESTCUBE 1 28 Nov 21:54:40 21:57:19 16° 67° (ENE) 21:59:59 437.505/2401.250
CINEMA 3 28 Nov 21:55:47 22:00:01 46° 260° (W) 22:04:06 145.822/145.860
UKube-1 28 Nov 21:56:32 22:00:44 48° 260° (W) 22:04:57 .
AAUSAT CUBESAT 2 28 Nov 21:58:33 22:01:29 19° 265° (W) 22:04:27 437.432
RS-15 28 Nov 22:03:40 22:08:03 13° 22° (NNE) 22:12:30 29.354- 29.394
FUNcube-1 28 Nov 22:04:45 22:08:58 87° 258° (WSW) 22:13:08 145.935
JUGNU 28 Nov 22:05:28 22:09:00 16° 168° (SSE) 22:12:32 437.505
Oscar 11 28 Nov 22:05:51 22:09:42 32° 262° (W) 22:13:36 145.826/435.025
ISS 28 Nov 22:09:02 22:12:18 74° 317° (NW) 22:15:35 145.825
AISAT 28 Nov 22:10:56 22:15:23 70° 76° (ENE) 22:19:51 437.250
CUBEBUG 1 28 Nov 22:12:56 22:16:26 23° 70° (ENE) 22:19:56 437.445
POPSAT HIP 1 28 Nov 22:23:55 22:26:23 15° 94° (E) 22:28:50 437.405
SRMSAT 28 Nov 22:24:18 22:25:40 11° 163° (SSE) 22:27:02 437.500
HUMSAT D 28 Nov 22:25:55 22:30:03 81° 258° (WSW) 22:34:11 437.325/437.525
TIGRISAT 28 Nov 22:32:25 22:36:26 31° 98° (E) 22:40:30 435.000
DX 1 28 Nov 22:37:00 22:39:47 16° 265° (W) 22:42:33 434.975-435.025
UWE-3 28 Nov 22:39:48 22:43:21 26° 263° (W) 22:46:52 435.000/436.395/437.385
DANDE 28 Nov 22:41:26 22:44:11 14° 77° (ENE) 22:47:15 436.750
CUBEBUG 2 28 Nov 22:46:58 22:49:59 19° 264° (W) 22:52:58 437.445
UNISAT 6 28 Nov 22:47:37 22:52:00 49° 100° (E) 22:56:27 437.425
POLYITAN 1 28 Nov 22:58:09 23:02:10 41° 99° (E) 23:06:10 437.675
QB50P2 28 Nov 22:58:51 23:02:52 42° 99° (E) 23:06:53 145.880/145.840
DUCHIFAT 1 28 Nov 23:02:42 23:06:45 46° 100° (E) 23:10:47 145.980
TISAT 1 28 Nov 23:04:15 23:07:25 21° 70° (ENE) 23:10:35 437.305
ZACube-1 28 Nov 23:09:03 23:11:19 14° 266° (W) 23:13:36 437.345
